SHIJIAN-25 (SJ-25) (62485 NORAD) Tracking and Keplerian Element Data

This shows tracking and keplerian element data for the satellite.

Feedback or suggestion? Click here.




ElementValue
Catalog62485
NameSHIJIAN-25 (SJ-25)
Epoch Orbit37
Epoch Day34.86186351
Epoch Year2025
RAAN43.5358
Inclination10.2469
Eccentricity0.0057045
Argument of Perigee183.7455
Mean Anonmoly337.1666
Mean Motion1.00261596
Decay Rate-3.68E-06
L11 62485U 25002A 25034.86186351 -.00000368 00000+0 00000+0 0 9992
L22 62485 10.2469 43.5358 0057045 183.7455 337.1666 1.00261596 373



Live tracking and technical data element details for SHIJIAN-25 (SJ-25) (NORAD 62485). SHIJIAN-25 (SJ-25) can be tracked NOW for your location showing map with azimuth and elevation plus other details from your city location.







IsCatalogInMostPopularTable: catalog: 62485, numindb: 10
Update: records affected: 1



GetName: 62485 SHIJIAN-25 (SJ-25)

Hit Count: updated at: Sun, 18 May 2025 21:57:04 GMT